TimeEDT,TemperatureF,Dew PointF,Humidity,Sea Level PressureIn,VisibilityMPH,Wind Direction,Wind SpeedMPH,Gust SpeedMPH,PrecipitationIn,Events,Conditions,WindDirDegrees,DateUTC
12:53 AM,46.0,42.1,86,29.81,10.0,ESE,4.6,-,N/A,,Overcast,110,2013-10-23 04:53:00
1:53 AM,46.0,39.0,76,29.78,10.0,SE,4.6,-,N/A,,Overcast,130,2013-10-23 05:53:00
2:53 AM,46.0,42.1,86,29.77,10.0,SSW,3.5,-,0.00,Rain,Light Rain,210,2013-10-23 06:53:00
3:53 AM,46.0,43.0,89,29.75,10.0,SW,8.1,-,0.01,,Overcast,230,2013-10-23 07:53:00
4:18 AM,46.4,42.8,87,29.75,10.0,WSW,4.6,-,N/A,,Overcast,250,2013-10-23 08:18:00
4:53 AM,46.9,43.0,86,29.75,10.0,WSW,5.8,-,N/A,,Overcast,250,2013-10-23 08:53:00
5:53 AM,46.9,42.1,83,29.76,10.0,West,9.2,17.3,N/A,,Overcast,270,2013-10-23 09:53:00
6:53 AM,46.0,39.0,76,29.78,10.0,West,11.5,20.7,N/A,,Overcast,260,2013-10-23 10:53:00
7:25 AM,42.8,41.0,93,29.79,5.0,West,10.4,16.1,N/A,,Overcast,260,2013-10-23 11:25:00
7:53 AM,43.0,41.0,93,29.81,9.0,West,8.1,20.7,0.00,Rain,Light Rain,280,2013-10-23 11:53:00
8:17 AM,42.8,39.2,87,29.83,10.0,WNW,10.4,24.2,0.00,,Overcast,290,2013-10-23 12:17:00
8:53 AM,41.0,37.0,86,29.87,10.0,WNW,10.4,21.9,0.01,,Overcast,290,2013-10-23 12:53:00
9:53 AM,39.0,36.0,89,29.92,10.0,WNW,11.5,24.2,N/A,,Overcast,300,2013-10-23 13:53:00
10:53 AM,39.0,36.0,89,29.95,10.0,WNW,9.2,19.6,N/A,,Overcast,300,2013-10-23 14:53:00
11:05 AM,39.2,35.6,87,29.95,10.0,NW,11.5,23.0,N/A,,Overcast,310,2013-10-23 15:05:00
11:50 AM,41.0,35.6,81,29.97,10.0,WNW,11.5,-,N/A,,Overcast,300,2013-10-23 15:50:00
11:53 AM,41.0,35.1,79,29.98,10.0,WNW,8.1,16.1,N/A,,Overcast,300,2013-10-23 15:53:00
12:53 PM,44.1,34.0,68,30.00,10.0,NW,15.0,20.7,N/A,,Overcast,310,2013-10-23 16:53:00
1:53 PM,44.1,34.0,68,30.00,9.0,WNW,11.5,18.4,N/A,,Overcast,290,2013-10-23 17:53:00
2:03 PM,44.6,33.8,66,29.99,8.0,NW,11.5,19.6,N/A,,Overcast,310,2013-10-23 18:03:00
2:53 PM,45.0,32.0,60,30.01,10.0,West,9.2,17.3,N/A,,Overcast,280,2013-10-23 18:53:00
3:53 PM,46.9,32.0,56,30.00,10.0,Variable,6.9,-,N/A,,Overcast,0,2013-10-23 19:53:00
4:53 PM,46.0,30.9,56,30.03,10.0,West,10.4,18.4,N/A,,Overcast,270,2013-10-23 20:53:00
5:53 PM,46.0,30.0,54,30.03,10.0,West,9.2,-,N/A,,Overcast,270,2013-10-23 21:53:00
6:53 PM,43.0,30.0,60,30.04,10.0,Calm,Calm,-,N/A,,Partly Cloudy,0,2013-10-23 22:53:00
7:53 PM,42.1,30.9,65,30.06,10.0,West,4.6,-,N/A,,Mostly Cloudy,260,2013-10-23 23:53:00
8:53 PM,39.9,33.1,77,30.07,10.0,WSW,4.6,-,N/A,,Overcast,240,2013-10-24 00:53:00
9:53 PM,39.9,32.0,73,30.07,10.0,WSW,4.6,-,N/A,,Mostly Cloudy,240,2013-10-24 01:53:00
10:53 PM,37.9,33.1,83,30.08,10.0,SW,4.6,-,N/A,,Overcast,220,2013-10-24 02:53:00
11:53 PM,39.0,34.0,82,30.09,10.0,WSW,4.6,-,N/A,,Overcast,240,2013-10-24 03:53:00